7 * 24
多渠道服务支持
STARLINK-34469 是由 SpaceX 发射的星链(Starlink)卫星之一,属于其低轨卫星互联网星座计划的一部分。该卫星旨在为全球用户提供高速、低延迟的互联网服务,特别是在偏远和网络基础设施薄弱的地区。它运行在约 550 公里的低地球轨道上,采用可再生太阳能供电,并具备自动避撞功能以确保太空安全。作为星链计划的组成部分,STARLINK-34469 有助于扩大全球互联网接入,推动数字包容性发展。
美国
(US)
| 数据来源 | 国际轨道数据 |
| 星历时间: | 2025-11-08T23:15:32+0800 23小时前 查看轨道信息 |
| 半长轴: | 6825.275km |
| 偏心率: | 0.0001857 |
| 轨道倾角: | 53.157° |
| 近地点辐角 | 95.370° |
| 升交点赤经 | 181.594° |
| 平近点角 | 264.752° |
| 近地点: | 445.872km |
| 远地点: | 448.408km |
| 周期: | 93.528分钟 |
| 每日圈数: | 15.396519 |